Location: Lynch Observatory
(39.9540°N, 75.1861°W)
Time: 01:16:13
(UTC-04:00)

CUTE 1.7 + AOD 2 - Visible Passes

Search period start: 16 April 2024 00:00
Search period end: 26 April 2024 00:00
Orbit: 572 x 588 km, 97.7° (Epoch: 15 April)

Date Brightness Start Highest point End Pass type
(mag) Time Alt. Az. Time Alt. Az. Time Alt. Az.
16 Apr ? 03:37:54 10° NE 03:40:44 18° E 03:42:13 15° ESE visible
16 Apr ? 05:12:27 10° N 05:16:08 33° WNW 05:18:34 18° SW visible
17 Apr ? 03:42:38 10° NE 03:45:42 20° E 03:47:20 16° SE visible
17 Apr ? 05:17:29 10° N 05:21:02 29° WNW 05:23:40 15° WSW visible
18 Apr ? 03:47:22 10° NE 03:50:40 23° E 03:52:24 18° SE visible
18 Apr ? 05:22:31 10° NNW 05:25:55 26° WNW 05:28:45 13° WSW visible
19 Apr ? 03:52:08 10° NE 03:55:36 26° E 03:57:29 19° SE visible
19 Apr ? 05:27:33 10° NNW 05:30:47 23° WNW 05:33:49 11° WSW visible
20 Apr ? 03:56:54 10° NE 04:00:30 30° E 04:02:32 19° SE visible
20 Apr ? 05:32:35 10° NNW 05:35:38 20° WNW 05:38:39 10° WSW visible
21 Apr ? 04:01:40 10° NNE 04:05:24 34° E 04:07:34 20° SSE visible
21 Apr ? 05:37:39 10° NNW 05:40:27 18° WNW 05:43:15 10° WSW visible
22 Apr ? 04:06:27 10° NNE 04:10:17 38° E 04:12:35 20° SSE visible
22 Apr ? 05:42:43 10° NNW 05:45:16 16° WNW 05:47:49 10° WSW visible
23 Apr ? 04:11:14 10° NNE 04:15:09 44° E 04:17:36 20° SSE visible
24 Apr ? 04:16:01 10° NNE 04:19:59 51° E 04:22:35 20° S visible
25 Apr ? 04:20:47 10° NNE 04:24:49 58° E 04:27:33 19° S visible
